Regional Weather Roundup
Issued by NWS

Home | Current Version | Previous Version | Graphics & Text | Print | Product List | Glossary Off
Versions: 1 2 3 4 5 6 7 8 9 10 11 12 13 14 15 16 17 18 19 20 21 22 23 24 25 26 27 28 29 30 31 32 33 34 35 36 37 38 39 40 41 42 43 44 45 46 47 48 49 50

130
ASUS43 KTOP 230259
RWRKS

WEATHER ROUNDUP FOR KANSAS
NATIONAL WEATHER SERVICE GOODLAND KS
1000 PM CDT SUN OCT 22 2017

NOTE:  "FAIR" INDICATES FEW OR NO CLOUDS BELOW 12,000 FEET WITH NO
SIGNIFICANT WEATHER AND/OR OBSTRUCTIONS TO VISIBILITY.

KSZ001>006-013>018-027>032-041>047-230400-
NORTHWEST KANSAS

CITY           SKY/WX    TMP DP  RH WIND       PRES   REMARKS
GOODLAND       CLEAR     51  25  36 SW9       30.05S
HAYS           CLOUDY    52  28  39 S7        30.04F
HILL CITY      CLOUDY    54  28  36 SW7       30.03S
RUSSELL        CLOUDY    51  32  48 S13       30.03F
$$

KSZ061>065-074>080-084>089-230400-
SOUTHWEST KANSAS

CITY           SKY/WX    TMP DP  RH WIND       PRES   REMARKS
DODGE CITY     CLOUDY    50  25  37 S9        30.08S
ELKHART          N/A     56  31  38 S9          N/A
GARDEN CITY    PTCLDY    53  27  36 S8        30.06S
GREAT BEND     CLOUDY    51  31  46 S7        30.06F
LIBERAL        CLOUDY    54  31  41 SW9       30.08F
$$

KSZ066>073-081>083-090>101-230400-
SOUTHEAST KANSAS

CITY           SKY/WX    TMP DP  RH WIND       PRES   REMARKS
CHANUTE        CLEAR     45  42  89 SE6       30.10S
COFFEYVILLE    CLEAR     47  44  90 S3        30.10F
HUTCHINSON     CLEAR     51  33  50 CALM      30.07S
MEDICINE LODGE   N/A     56  28  34 S7        30.08R
NEWTON         CLEAR     51  40  65 S10       30.09S
PARSONS        CLEAR     45  43  93 CALM      30.11F
WICHITA INTL   CLEAR     51  43  74 S8        30.08S
WICHITA JABRA  CLEAR     54  40  59 S8        30.09R
WICHITA MCCONL CLEAR     51  39  62 S7        30.09S
WINFIELD       CLEAR     52  43  71 S5        30.11F
$$

KSZ007>012-019>026-033>040-048>060-102>105-230400-
NORTHEAST KANSAS

CITY           SKY/WX    TMP DP  RH WIND       PRES   REMARKS
CONCORDIA      CLOUDY    56  30  37 S12       30.02F
EMPORIA        CLEAR     49  36  61 S9        30.08S
LAWRENCE       CLEAR     44  42  93 E5        30.07S
MANHATTAN      CLEAR     44  38  79 CALM      30.05F
OLATHE IND     CLEAR     47  40  76 S6        30.08F
OLATHE EXE     CLEAR     48  43  82 S5        30.07F
SALINA         CLOUDY    50  38  63 S7        30.05F
TOPEKA BILLARD CLEAR     48  47  96 CALM      30.06S
TOPEKA FORBES  CLEAR     48  42  80 S5        30.07S
$$




USA.gov is the U.S. government's official web portal to all federal, state and local government web resources and services.